Погода в Верхненазаровском

Россия / Республика Адыгея     45°00′20″N   39°45′05″E
темп.,
°C
ветер,
м/с
пор.,
м/с
влажн.,
%
обл.,
%
осадки,
мм/ч
давл.,
гПа
погр.,
м
8 мая, сб
сб800:00+11юв11797 0.0 101711
03:00+11юв2289100 0.0 101621
06:00+12ююв2288100 0.0 101633
09:00+18юв1171100 0.0 1015306
12:00+22ююв126099 0.0 1013682
15:00+24юв124994 0.0 10121068
18:00+23в126771 0.0 101122
21:00+17юв227899 0.0 101111
9 мая, вс
вс900:00+15зюз3782100 0.0 1010121
03:00+13зюз3779100 0.1 1011204
06:00+13з41298100 2.2 1010525
09:00+9сз61294100 8.6 1014847
12:00+9зсз6994100 2.4 1018902
15:00+9зсз5788100 7.2 1020757
18:00+10зсз368639 0.9 1022543
21:00+7зюз228878 1.1 102423
10 мая, пн
пн1000:00+6юз47935 0.0 1024138
03:00+5юз36935 0.0 102595
06:00+5зюз35926 0.0 1025121
09:00+10зсз4673100 0.3 1024601
12:00+13зсз5758100 0.4 10241689
15:00+13сз7952100 0.9 10232228
18:00+9ссз5880100 0.6 1024712
21:00+7зюз4988100 0.8 1023225
11 мая, вт
вт1100:00+7зюз51191100 3.6 1021750
03:00+7юз71488100 6.0 1018736
06:00+8юз91591100 4.1 10171012
09:00+8юз101591100 11.9 10181150
12:00+9зюз91691100 2.9 10171416
15:00+9зюз71394100 7.4 10181049
18:00+9юз61394100 4.2 10181022
21:00+9ююз41193100 7.0 1018453
12 мая, ср
ср1200:00+8ююв4892100 0.2 1018217
03:00+8юв4895100 0.3 1017204
06:00+9вюв41094100 0.0 1017418
09:00+12в568446 0.0 1016637
12:00+16в567024 0.0 10151104
15:00+19в45632 0.0 10141424
18:00+18св47783 0.0 1014305
21:00+12в411913 0.0 1014194